[Date Prev][Date Next][Thread Prev][Thread Next] - [Date Index][Thread Index][Author Index]

2 Line ISS Keps 4-10



ISS
1 25544U 98067A   04101.29101852  .00020197  00000-0  18210-3 0  5411
2 25544  51.6286 311.7682 0010831  16.2167 319.2983 15.68092581307655


----
Via the sarex mailing list at AMSAT.ORG courtesy of AMSAT-NA.
To unsubscribe, send "unsubscribe sarex" to Majordomo@amsat.org



AMSAT Top AMSAT Home